Location: Burla
(50.9568°N, 10.4983°E)
Time: 08:40:25
(UTC+00:00)

Meteor 2-10 Rocket - Pass Details

Date: 18 January 2026
Orbit: 733 x 881 km, 81.2° (Epoch: 18 February)

Event Time Altitude Azimuth Distance (km) Brightness Sun altitude
Rises 04:11:02 0° 175° (S) 3,185 6.8 -27.9°
Reaches altitude 10° 04:13:23 10° 170° (S) 2,281 6.0 -27.5°
Maximum altitude 04:18:20 52° 95° (E) 964 4.3 -26.7°
Drops below altitude 10° 04:23:31 10° 21° (NNE) 2,385 6.3 -25.9°
Sets 04:26:00 0° 16° (NNE) 3,345 7.0 -25.5°
